Location: Caltech
(34.1382°N, 118.1253°W)
Time: 21:43:19
(UTC-07:00)

Aureole 2 Rocket - Visible Passes

Search period start: 23 June 2018 00:00
Search period end: 03 July 2018 00:00
Orbit: 323 x 526 km, 73.9° (Epoch: 23 June)

Date Brightness Start Highest point End Pass type
(mag) Time Alt. Az. Time Alt. Az. Time Alt. Az.
23 Jun 5.3 04:36:40 10° ESE 04:37:41 11° E 04:38:40 10° E visible
25 Jun 3.7 04:41:27 10° S 04:44:19 32° ESE 04:47:01 10° NE visible
26 Jun 5.1 03:59:34 10° ESE 04:00:26 11° E 04:01:19 10° E visible
27 Jun 2.0 04:48:14 13° SSW 04:50:54 67° WNW 04:53:47 10° N visible
28 Jun 3.5 04:05:26 20° SSE 04:06:54 32° ESE 04:09:32 10° NE visible
29 Jun 5.0 03:22:34 10° ESE 03:22:58 11° E 03:23:41 10° E visible
29 Jun 3.7 04:55:42 13° WSW 04:57:26 19° WNW 04:59:38 10° NNW visible
30 Jun 1.9 04:12:44 49° SW 04:13:20 65° WNW 04:16:09 10° N visible
01 Jul 3.7 03:29:42 29° E 03:29:42 29° E 03:31:51 10° NE visible
02 Jul 3.7 04:19:43 19° WNW 04:19:43 19° WNW 04:21:49 10° NNW visible
